TimeEDT,TemperatureF,Dew PointF,Humidity,Sea Level PressureIn,VisibilityMPH,Wind Direction,Wind SpeedMPH,Gust SpeedMPH,PrecipitationIn,Events,Conditions,WindDirDegrees,DateUTC
12:15 AM,69.4,69.4,100,29.94,10.0,SSW,3.5,-,0.01,Rain,Light Rain,200,2013-06-27 04:15:00
12:35 AM,69.1,69.1,100,29.93,10.0,SSW,4.6,-,0.01,,Light Drizzle,210,2013-06-27 04:35:00
12:55 AM,69.3,69.3,100,29.93,10.0,Calm,Calm,-,0.01,,Clear,0,2013-06-27 04:55:00
1:15 AM,68.9,68.9,100,29.93,10.0,SW,4.6,-,N/A,,Clear,220,2013-06-27 05:15:00
1:35 AM,68.7,68.7,100,29.93,10.0,SW,3.5,-,N/A,,Clear,230,2013-06-27 05:35:00
2:15 AM,68.5,68.5,100,29.93,10.0,Calm,Calm,-,N/A,,Clear,0,2013-06-27 06:15:00
2:35 AM,68.2,68.2,100,29.93,10.0,SW,3.5,-,N/A,,Clear,220,2013-06-27 06:35:00
2:55 AM,68.0,68.0,100,29.94,10.0,Calm,Calm,-,N/A,,Clear,0,2013-06-27 06:55:00
3:15 AM,68.2,68.2,100,29.94,10.0,SW,3.5,-,N/A,,Clear,230,2013-06-27 07:15:00
3:35 AM,68.4,68.4,100,29.94,10.0,Calm,Calm,-,N/A,,Clear,0,2013-06-27 07:35:00
3:55 AM,68.5,68.4,99,29.93,10.0,Calm,Calm,-,N/A,,Clear,0,2013-06-27 07:55:00
4:15 AM,68.9,68.7,99,29.93,10.0,Calm,Calm,-,N/A,,Clear,0,2013-06-27 08:15:00
4:35 AM,69.3,68.9,99,29.92,10.0,Calm,Calm,-,N/A,,Clear,0,2013-06-27 08:35:00
4:55 AM,69.3,69.1,99,29.92,10.0,Calm,Calm,-,N/A,,Clear,0,2013-06-27 08:55:00
5:15 AM,69.1,69.1,100,29.91,10.0,Calm,Calm,-,N/A,,Clear,0,2013-06-27 09:15:00
5:35 AM,69.6,69.6,100,29.91,7.0,South,3.5,-,N/A,,Mostly Cloudy,180,2013-06-27 09:35:00
5:55 AM,70.0,70.0,100,29.92,7.0,Calm,Calm,-,N/A,,Overcast,0,2013-06-27 09:55:00
6:15 AM,70.7,70.7,100,29.91,4.0,Calm,Calm,-,N/A,,Overcast,0,2013-06-27 10:15:00
6:35 AM,70.9,70.9,100,29.91,4.0,South,3.5,-,N/A,,Overcast,190,2013-06-27 10:35:00
6:55 AM,71.6,71.6,100,29.91,5.0,South,4.6,-,N/A,,Overcast,190,2013-06-27 10:55:00
7:15 AM,72.1,72.1,100,29.92,5.0,SSW,4.6,-,N/A,,Overcast,210,2013-06-27 11:15:00
7:35 AM,72.7,72.7,100,29.92,5.0,SSW,3.5,-,N/A,,Overcast,210,2013-06-27 11:35:00
7:55 AM,73.4,73.4,100,29.92,5.0,SSW,3.5,-,N/A,,Overcast,210,2013-06-27 11:55:00
8:15 AM,74.1,73.6,98,29.91,7.0,SSW,4.6,-,N/A,,Overcast,210,2013-06-27 12:15:00
8:35 AM,74.8,73.9,97,29.91,7.0,SSW,6.9,-,N/A,,Overcast,210,2013-06-27 12:35:00
8:55 AM,75.6,74.3,96,29.91,10.0,SSW,6.9,-,N/A,,Overcast,200,2013-06-27 12:55:00
9:15 AM,77.0,74.8,93,29.90,10.0,SW,8.1,-,N/A,,Overcast,230,2013-06-27 13:15:00
9:35 AM,78.4,75.2,90,29.89,10.0,SSW,6.9,-,N/A,,Mostly Cloudy,210,2013-06-27 13:35:00
9:55 AM,79.7,75.6,87,29.88,10.0,SW,8.1,-,N/A,,Mostly Cloudy,220,2013-06-27 13:55:00
10:15 AM,81.3,76.3,85,29.87,10.0,SSW,5.8,-,N/A,,Scattered Clouds,210,2013-06-27 14:15:00
10:35 AM,82.2,76.3,82,29.87,10.0,SSW,5.8,-,N/A,,Scattered Clouds,210,2013-06-27 14:35:00
10:55 AM,83.5,76.8,80,29.86,10.0,South,6.9,16.1,N/A,,Scattered Clouds,190,2013-06-27 14:55:00
11:15 AM,84.2,76.6,78,29.87,10.0,SW,8.1,-,N/A,,Clear,230,2013-06-27 15:15:00
11:35 AM,85.1,76.6,76,29.87,10.0,SSW,5.8,-,N/A,,Scattered Clouds,210,2013-06-27 15:35:00
11:55 AM,86.0,77.0,74,29.87,10.0,SW,10.4,-,N/A,,Scattered Clouds,230,2013-06-27 15:55:00
12:15 PM,86.0,77.0,74,29.87,10.0,SW,8.1,18.4,N/A,,Mostly Cloudy,230,2013-06-27 16:15:00
12:35 PM,86.4,77.0,74,29.86,10.0,SW,6.9,-,N/A,,Mostly Cloudy,220,2013-06-27 16:35:00
12:55 PM,86.7,77.4,74,29.86,10.0,SW,8.1,-,N/A,,Mostly Cloudy,230,2013-06-27 16:55:00
1:15 PM,88.2,77.4,70,29.85,10.0,SW,6.9,-,N/A,,Mostly Cloudy,230,2013-06-27 17:15:00
1:35 PM,89.6,77.0,66,29.85,10.0,SW,9.2,-,N/A,,Scattered Clouds,230,2013-06-27 17:35:00
1:55 PM,87.8,76.3,69,29.84,10.0,SW,6.9,-,N/A,,Mostly Cloudy,230,2013-06-27 17:55:00
2:15 PM,89.2,76.8,67,29.83,10.0,SW,8.1,-,N/A,,Mostly Cloudy,230,2013-06-27 18:15:00
2:35 PM,90.7,76.5,63,29.81,10.0,SSW,8.1,17.3,N/A,,Scattered Clouds,210,2013-06-27 18:35:00
2:55 PM,91.0,76.1,61,29.80,10.0,SW,12.7,17.3,N/A,,Scattered Clouds,230,2013-06-27 18:55:00
3:15 PM,91.8,76.1,60,29.80,10.0,SW,6.9,19.6,N/A,,Clear,220,2013-06-27 19:15:00
3:35 PM,90.9,75.0,60,29.78,10.0,SW,9.2,-,N/A,,Scattered Clouds,230,2013-06-27 19:35:00
3:55 PM,91.4,74.7,58,29.78,10.0,SW,8.1,16.1,N/A,,Scattered Clouds,220,2013-06-27 19:55:00
4:15 PM,91.6,74.5,57,29.77,10.0,SSW,8.1,-,N/A,,Scattered Clouds,210,2013-06-27 20:15:00
4:35 PM,90.7,74.1,58,29.77,10.0,SSW,5.8,17.3,N/A,,Scattered Clouds,210,2013-06-27 20:35:00
4:55 PM,91.0,74.3,58,29.76,10.0,SSW,8.1,16.1,N/A,,Scattered Clouds,210,2013-06-27 20:55:00
5:15 PM,90.7,73.8,57,29.75,10.0,SSW,8.1,-,N/A,,Clear,210,2013-06-27 21:15:00
5:35 PM,88.9,74.1,62,29.74,10.0,South,5.8,-,N/A,,Scattered Clouds,180,2013-06-27 21:35:00
5:55 PM,76.6,74.1,92,29.76,1.5,South,5.8,24.2,0.24,Rain,Heavy Rain,170,2013-06-27 21:55:00
6:15 PM,77.4,75.2,93,29.78,10.0,SSW,5.8,-,N/A,Rain,Light Rain,210,2013-06-27 22:15:00
6:35 PM,77.0,76.1,97,29.80,7.0,NNE,4.6,-,N/A,Rain,Light Rain,30,2013-06-27 22:35:00
6:55 PM,76.5,74.7,94,29.80,2.0,Calm,Calm,-,0.11,Rain,Light Rain,0,2013-06-27 22:55:00
7:15 PM,76.1,74.8,96,29.80,10.0,Calm,Calm,-,0.01,,Overcast,0,2013-06-27 23:15:00
7:35 PM,75.9,73.9,94,29.81,10.0,SW,4.6,-,0.01,Rain,Rain,220,2013-06-27 23:35:00
7:55 PM,74.3,73.4,97,29.81,10.0,Calm,Calm,-,0.03,Rain,Light Rain,0,2013-06-27 23:55:00
8:15 PM,73.9,73.4,98,29.81,10.0,SSW,3.5,-,N/A,,Scattered Clouds,210,2013-06-28 00:15:00
8:35 PM,73.6,72.7,97,29.80,10.0,South,3.5,-,N/A,,Scattered Clouds,190,2013-06-28 00:35:00
8:55 PM,73.4,72.5,97,29.80,10.0,Calm,Calm,-,N/A,,Clear,0,2013-06-28 00:55:00
9:15 PM,72.9,72.5,99,29.79,10.0,South,3.5,-,N/A,,Clear,180,2013-06-28 01:15:00
9:35 PM,72.7,72.5,99,29.79,10.0,Calm,Calm,-,N/A,,Clear,0,2013-06-28 01:35:00
9:55 PM,72.7,72.7,100,29.79,10.0,Calm,Calm,-,N/A,,Clear,0,2013-06-28 01:55:00
10:15 PM,72.7,72.7,100,29.80,10.0,Calm,Calm,-,N/A,,Clear,0,2013-06-28 02:15:00
10:35 PM,72.7,72.7,100,29.80,7.0,Calm,Calm,-,N/A,,Scattered Clouds,0,2013-06-28 02:35:00
10:55 PM,73.0,73.0,100,29.80,7.0,South,3.5,-,N/A,,Scattered Clouds,190,2013-06-28 02:55:00
11:15 PM,73.4,73.4,100,29.81,10.0,Calm,Calm,-,N/A,,Scattered Clouds,0,2013-06-28 03:15:00
11:35 PM,73.6,73.6,100,29.80,7.0,South,3.5,-,N/A,,Scattered Clouds,180,2013-06-28 03:35:00
11:55 PM,73.9,73.9,100,29.79,10.0,South,4.6,-,N/A,,Mostly Cloudy,170,2013-06-28 03:55:00